Miscellaneous Local Product
Issued by NWS Hastings, NE

Home | Current Version | Previous Version | Graphics & Text | Print | Product List | Glossary On
Versions: 1 2 3 4 5 6 7 8 9 10 11 12 13 14 15 16 17 18 19 20 21 22 23 24 25 26 27 28 29 30 31 32 33 34 35 36 37 38 39 40 41 42 43 44 45 46 47 48 49 50
100
AXUS43 KGID 071002
MISGRI

GID CWA HOURLY WEATHER ROUNDUP
NATIONAL WEATHER SERVICE HASTINGS NE
400 AM CST SUN FEB 07 2016

NOTE: "FAIR" INDICATES FEW OR NO CLOUDS BELOW 12,000 FEET WITH NO
SIGNIFICANT WEATHER AND/OR OBSTRUCTIONS TO VISIBILITY.

...SOUTH CENTRAL NEBRASKA...

CITY           SKY/WX    TMP DP  RH WIND       PRES   REMARKS
GRAND ISLAND   CLOUDY    34  25  69 W14       30.01S WCI  25
HASTINGS       CLOUDY    37  25  61 NW16      30.01S WCI  28
ORD            CLEAR     34  24  67 NW10      30.01R WCI  26
YORK           PTCLDY    36  27  69 NW14      29.99R WCI  27
AURORA         CLOUDY    32  26  79 NW12      29.99S WCI  23
LEXINGTON      PTCLDY    36  26  68 W14       30.06F WCI  27
HOLDREGE       CLOUDY    36  27  69 NW14      30.05S WCI  27
HEBRON         CLOUDY    36  28  74 NW9       30.00F WCI  29

...NEBRASKA PANHANDLE...

CITY           SKY/WX    TMP DP  RH WIND       PRES   REMARKS
CHADRON        CLOUDY    35  22  58 W12       30.14R WCI  27
ALLIANCE       CLOUDY    24  17  74 W13       30.11R WCI  12
SCOTTSBLUFF    CLOUDY    29  20  69 W8        30.16R WCI  21
SIDNEY         PTCLDY    25  16  68 NW10      30.14R WCI  15

...WESTERN AND NORTH CENTRAL NEBRASKA...

CITY           SKY/WX    TMP DP  RH WIND       PRES   REMARKS
VALENTINE      CLOUDY    36  24  62 W13       30.03R WCI  27
AINSWORTH      CLEAR     36  24  62 W13       30.03R WCI  27
ONEILL         CLEAR     38  25  59 W21       29.98S WCI  27
BROKEN BOW     CLOUDY    40  22  48 NW20      30.03S WCI  30
IMPERIAL       CLEAR     29  20  69 NW8       30.11S WCI  21
NORTH PLATTE   PTCLDY    26  21  81 W7        30.08S WCI  18
MCCOOK         PTCLDY    34  26  72 W16       30.08F WCI  24

...EASTERN NEBRASKA...

CITY           SKY/WX    TMP DP  RH WIND       PRES   REMARKS
NORFOLK        CLEAR     39  25  57 NW15      29.94R WCI  31
SO SIOUX CITY  CLEAR     40  27  59 NW18      29.88S WCI  31
TEKAMAH        CLEAR     32  24  72 W6        29.92S WCI  26
COLUMBUS       CLOUDY    36  19  51 W6        29.96S WCI  31
ALBION         CLEAR     37  25  61 NW17      29.97R WCI  27
OMAHA EPPLEY   CLOUDY    32  26  78 CALM      29.93S
OFFUTT AFB     CLOUDY    28  25  90 W5        29.93S WCI  22
MILLARD        CLOUDY    29  27  90 CALM      29.94S
LINCOLN        CLOUDY    36  26  67 NW9       29.98R WCI  29
NEBRASKA CITY  CLOUDY    33  29  85 W13       29.94S WCI  24
BEATRICE       CLOUDY    31  27  86 W3        29.98S
FALLS CITY     CLOUDY    37  26  64 W15       29.96R WCI  28

...NORTHERN KANSAS...

CITY           SKY/WX    TMP DP  RH WIND       PRES   REMARKS
GOODLAND       CLOUDY    29  22  75 W10       30.11F WCI  20
HILL CITY      CLOUDY    37  28  70 NW8       30.10R WCI  31
NORTON         SUNNY     34  25  69 NW8       30.06  WCI  27
PHILLIPSBURG   CLEAR     37  28  70 W10       30.08S WCI  30
BELOIT         CLEAR     32  28  86 W5        30.04R WCI  27
HAYS           CLOUDY    37  21  52 NW12      30.08R WCI  30
RUSSELL        CLOUDY    37  29  72 NW15      30.05S WCI  28
CONCORDIA      CLOUDY    34  27  75 W10       30.02S WCI  26
SALINA         CLOUDY    41  27  57 NW10      30.04S
TOPEKA         PTCLDY    42  24  49 SW7       30.00S



USA.gov is the U.S. government's official web portal to all federal, state and local government web resources and services.